Sydney

Airport
ICAO code: 
CYQY
Summary
ICAO Region: 
NAM
Territory: 
Location: 
Sydney, Nova Scotia,
Coordinates: 
Aerial View: 
46° 9' 41.04" N, 60° 2' 52.073" W
Metar
Observation
CYQY 241700Z 01013G19KT 1SM R06/4000V5000FT/U -SN OVC004 M03/M03 A2976 RMK SC8 SLP084
Station
Sydney, N. S.
Date/Time
2022-01-24 17:00:00
Wind direction
10°
Wind speed
13 kts
Lowest cloud amount
overcast
Temperature
6°C
Dew point
40°C
Humidity
786%
Weather condition
n/a

Description

International airport serving Sydney, Nova Scotia.

Climatology

Humid Continental climate (Köppen climate classification Dfb) - Variable weather patterns and a large seasonal temperature variance. Summers are often warm and humid with frequent thunderstorms and winters can be very cold with frequent snowfall and persistent snow cover.

Runways

Designator Length Width Surface Rops
1/19 1829 46 ASP Yes/Yes
7/25 2155 61 ASP Yes/Yes
Airport map: 
Aerial View: 

SKYbrary Partners:

Safety knowledge contributed by: